Liberia, Costa Rica

2:43 AM CST on August 24, 2017 (GMT -0600)
Daniel Oduber Quiros International

Weather History for MRLB - December, 2012

Change the Weather History Date:

Friday, December 14, 2012

  Actual Average Record
Temperature  
Mean Temperature 82 °F -  
Max Temperature 91 °F 87 °F 93 °F (2002)
Min Temperature 72 °F 72 °F 66 °F (2007)
Cooling Degree Days 16    
Growing Degree Days 32 (Base 50)    
Moisture  
Dew Point 67 °F    
Average Humidity 55    
Maximum Humidity 83    
Minimum Humidity 35    
Precipitation  
Precipitation 0.00 in - - ()
Sea Level Pressure  
Sea Level Pressure 29.85 in    
Wind  
Wind Speed 9 mph ()    
Max Wind Speed 22 mph    
Max Gust Speed -    
Visibility 7.7 miles    
Events      
Averages and records for this station are not official NWS values.
T = Trace of Precipitation, MM = Missing Value Source: Averaged Metar Reports

Daily Weather History Graph

Daily Weather History Graph

Search for Another Location

Airport or City:

Trip Planner

Search our weather history database for the weather conditions in past years. The results will help you decide how hot, cold, wet, or windy it might be!

Date:

Astronomy

Dec. 14, 2012 Rise Set
Actual Time 5:51 AM CST 5:22 PM CST
Civil Twilight 5:28 AM CST 5:45 PM CST
Nautical Twilight 5:02 AM CST 6:11 PM CST
Astronomical Twilight 4:36 AM CST 6:38 PM CST
Moon 7:04 AM CST (12/14) 7:02 PM CST (12/14)
Length of Visible Light 12h 16m
Length of Day
11h 30m
Waxing Crescent, 3% of the Moon is Illuminated
Dec 14
Waxing Crescent
Dec 19
First Quarter
Dec 28
Full
Jan 4
Last Quarter
Jan 11
New

Hourly Weather History & Observations

Time (CST) Temp. Heat Index Dew Point Humidity Pressure Visibility Wind Dir Wind Speed Gust Speed Precip Events Conditions
6:00 AM 73 °F - 68 °F 80% 29.89 in 12 mi SSE 2.3 mph - -   Partly Cloudy
6:00 AM 73.4 °F - 68.0 °F 83% 29.87 in 6.2 mi SSE 2.3 mph - N/A   Mostly Cloudy
7:00 AM 77.0 °F - 68.0 °F 74% 29.88 in 6.2 mi SSW 5.8 mph - N/A   Partly Cloudy
8:00 AM 82.4 °F 84.6 °F 66.2 °F 58% 29.90 in 6.2 mi SE 3.5 mph - N/A   Partly Cloudy
9:00 AM 85 °F - 68 °F 47% 29.91 in 12 mi NW 8.9 mph - -   Scattered Clouds
9:00 AM 86.0 °F 89.4 °F 68.0 °F 55% 29.90 in 6.2 mi NW 4.6 mph - N/A   Partly Cloudy
10:00 AM 86.0 °F 87.3 °F 64.4 °F 48% 29.90 in 6.2 mi East 16.1 mph - N/A   Partly Cloudy
11:00 AM 87.8 °F 90.4 °F 66.2 °F 49% 29.87 in 6.2 mi ENE 20.7 mph - N/A   Partly Cloudy
12:00 PM 89 °F - 66 °F 36% 29.86 in 12 mi ENE 19.6 mph - -   Scattered Clouds
12:00 PM 89.6 °F 92.2 °F 66.2 °F 46% 29.85 in 6.2 mi ENE 19.6 mph - N/A   Partly Cloudy
1:00 PM 89.6 °F 92.2 °F 66.2 °F 46% 29.82 in 6.2 mi ENE 21.9 mph - N/A   Scattered Clouds
2:00 PM 91.4 °F 93.2 °F 64.4 °F 41% 29.79 in 6.2 mi ENE 17.3 mph - N/A   Scattered Clouds
3:00 PM 89 °F - 65 °F 35% 29.80 in 12 mi East 17.3 mph - -   Scattered Clouds
3:00 PM 89.6 °F 91.1 °F 64.4 °F 43% 29.79 in 6.2 mi East 17.3 mph - N/A   Scattered Clouds
4:00 PM 87.8 °F 90.4 °F 66.2 °F 49% 29.79 in 6.2 mi ENE 18.4 mph - N/A   Scattered Clouds
5:00 PM 82.4 °F 84.6 °F 66.2 °F 58% 29.80 in 6.2 mi East 13.8 mph - N/A   Mostly Cloudy
6:00 PM 81 °F - 68 °F 55% 29.85 in 12 mi East 10.4 mph - -   Partly Cloudy
6:00 PM 80.6 °F 83.2 °F 68.0 °F 65% 29.84 in 6.2 mi East 10.4 mph - N/A   Mostly Cloudy
7:00 PM 78.8 °F - 68.0 °F 69% 29.86 in 6.2 mi East 9.2 mph - N/A   Mostly Cloudy
8:00 PM 78.8 °F - 68.0 °F 69% 29.89 in 6.2 mi SSE 5.8 mph - N/A   Mostly Cloudy